Location: Ford County Road and Bridge Department
(37.7686°N, 99.9762°W)
Time: 15:04:47
(UTC+00:00)

Cosmos 1339 Rocket - Pass Details

Date: 18 January 2020
Orbit: 942 x 1006 km, 82.9° (Epoch: 26 February)

Event Time Altitude Azimuth Distance (km) Brightness Sun altitude
Rises 01:30:35 0° 357° (N) 3,614 7.4 -20.3°
Reaches altitude 10° 01:33:08 10° 2° (N) 2,666 6.7 -20.8°
Maximum altitude 01:39:06 57° 80° (E) 1,102 4.4 -21.9°
Drops below altitude 10° 01:45:05 10° 159° (SSE) 2,670 6.7 -23.1°
Sets 01:47:38 0° 163° (SSE) 3,619 7.4 -23.6°
